Flag for Nicaragua Weather past 2 weeks in Managua, Nicaragua

Now
82 °F

Passing clouds.


Feels Like: 87 °F
Forecast: 80 / 95 °F
Wind: 7 mph from East

Location: Managua A. C. Sandino


UV Index: 7 (High)

Visibility: N/A


Pressure: 29.83 "Hg

Humidity: 70%

Dew point: 72 °F

Location of ManaguaLocation

Historic Weather in Managua

°F

Managua temperature yesterday

Maximum temperature yesterday: 97 °F (at 2:00 PM)
Minimum temperature yesterday: 75 °F (at 6:00 AM)
Average temperature yesterday: 86 °F

Past Weeks' High & Low Weather Summary

 TemperatureHumidityPressure
High99 °F (Apr 8, 3:00 PM)88% (Apr 13, 6:00 AM)29.95 "Hg (Apr 13, 6:00 AM)
Low68 °F (Apr 13, 6:00 AM)27% (Apr 12, 3:00 PM)29.68 "Hg (Apr 15, 3:00 PM)
Average87 °F55%29.82 "Hg
* Reported Apr 1 5:00 AM — Apr 16 5:00 AM, Managua, Weather by CustomWeather, © 2014

Note: Actual official high and low records may vary slightly from our data, if they occured in-between our weather recording intervals... More about our weather records

Advertising

Historic Weather Conditions — Data for Previous 24 hours

 ConditionsComfort  
Time TempWeatherWind HumidityBarometerVisibility
5:00 AM
Apr 16
82 °FPassing clouds.7 mph70%29.83 "HgN/A
4:00 AM82 °FPassing clouds.9 mph70%29.80 "HgN/A
2:00 AM82 °FPassing clouds.9 mph74%29.80 "HgN/A
1:00 AM82 °FPassing clouds.9 mph74%29.83 "Hg6 mi
12:00 AM82 °FPassing clouds.12 mph74%29.83 "Hg6 mi
11:00 PM
Apr 15
82 °FPassing clouds.16 mph74%29.83 "HgN/A
10:00 PM84 °FPassing clouds.16 mph70%29.83 "HgN/A
9:00 PM84 °FPassing clouds.18 mph74%29.80 "HgN/A
8:00 PM86 °FPassing clouds.16 mph70%29.77 "HgN/A
7:00 PM86 °FPassing clouds.18 mph66%29.74 "HgN/A
5:00 PM97 °FPassing clouds.7 mph39%29.68 "HgN/A
4:00 PM97 °FPassing clouds.7 mph39%29.68 "HgN/A
3:00 PM97 °FPassing clouds.7 mph42%29.68 "HgN/A
2:00 PM97 °FScattered clouds.7 mph42%29.71 "HgN/A
1:00 PM95 °FScattered clouds.9 mph41%29.74 "HgN/A
12:00 PM93 °FScattered clouds.7 mph47%29.77 "HgN/A
11:00 AM91 °FScattered clouds.7 mph49%29.83 "HgN/A
10:00 AM91 °FScattered clouds.9 mph49%29.83 "HgN/A
9:00 AM88 °FScattered clouds.7 mph55%29.86 "HgN/A
8:00 AM84 °FScattered clouds.7 mph62%29.86 "HgN/A
7:00 AM81 °FScattered clouds.9 mph70%29.83 "HgN/A
6:00 AM75 °FScattered clouds.5 mph83%29.83 "Hg6 mi
5:00 AM77 °FPassing clouds.No wind79%29.80 "Hg6 mi
Weather by CustomWeather, © 2014

See weather overview